Date String (YYYY-MM-DD hh:mm:ss) UTC,Instrument flags,absolute air pressure of the measurement (hPa),sample flow rate (lpm),inlet stack bypass flow (lpm),air temperature of the measurement (°C),ambient temperature measured by the external sensor (°C),aerosol sample conditioner tube jacket temperature (°C),OPC LED temperature (°C),internal box temperature (°C),relative humidity of the measurement (%),span deviation,mass concentration of particles derived from Lorenz-Mie calculation of OPC scattering (μg/m³),mass concentration of particles derived from Lorenz-Mie calculation of OPC scattering (μg/m³),mass concentration of particles derived from Lorenz-Mie calculation of OPC scattering (μg/m³)
DateTimeUTC,F1_M11,P_M11,Q1_M11,Q2_M11,T1_M11,T2_M11,T3_M11,T4_M11,T5_M11,U1_M11,ZSPAN_M11,X2_M11,X0_M11,X1_M11
2024-04-26 01:00:00,SystemResetWarning,0816.4,4.99,000.00,025.1,024.4,000.0,033.5,027.0,020.1,0000.0,0003.41,0007.96,0002.43
2024-04-26 01:01:00,SystemResetWarning,0816.4,4.99,000.00,025.1,024.4,000.0,033.6,027.0,020.4,0000.0,0003.46,0008.04,0002.51
2024-04-26 01:02:00,SystemResetWarning,0816.4,5.02,000.00,025.2,024.4,000.0,033.6,027.0,020.3,0000.0,0003.52,0008.00,0002.61
2024-04-26 01:03:00,SystemResetWarning,0816.4,5.00,000.00,025.2,024.4,000.0,033.6,027.0,020.2,0000.0,0003.62,0008.10,0002.72
2024-04-26 01:04:00,SystemResetWarning,0816.3,5.00,000.00,025.2,024.4,000.0,033.6,027.0,020.2,0000.0,0003.70,0007.85,0002.84
2024-04-26 01:05:00,SystemResetWarning,0816.2,5.00,000.00,025.2,024.4,000.0,033.6,027.0,020.3,0000.0,0003.74,0007.85,0002.96
2024-04-26 01:06:00,SystemResetWarning,0816.2,4.99,000.00,025.2,024.4,000.0,033.6,027.1,020.3,0000.0,0003.80,0008.12,0003.05
2024-04-26 01:07:00,SystemResetWarning,0816.1,5.01,000.00,025.2,024.4,000.0,033.6,027.1,020.2,0000.0,0003.88,0008.40,0003.13
2024-04-26 01:08:00,SystemResetWarning,0816.1,5.01,000.00,025.2,024.4,000.0,033.6,027.0,020.2,0000.0,0003.98,0008.82,0003.18
2024-04-26 01:09:00,SystemResetWarning,0816.0,5.00,000.00,025.2,024.4,000.0,033.6,027.1,019.9,0000.0,0004.01,0009.31,0003.23
2024-04-26 01:10:00,SystemResetWarning,0815.9,5.00,000.00,025.2,024.5,000.0,033.6,027.1,019.8,0000.0,0004.00,0009.12,0003.27
2024-04-26 01:11:00,SystemResetWarning,0815.8,4.99,000.00,025.2,024.5,000.0,033.6,027.1,020.0,0000.0,0004.03,0009.05,0003.29
2024-04-26 01:12:00,SystemResetWarning,0815.6,4.99,000.00,025.2,024.5,000.0,033.6,027.0,019.9,0000.0,0004.02,0008.98,0003.31
2024-04-26 01:13:00,SystemResetWarning,0815.4,5.00,000.00,025.2,024.4,000.0,033.6,027.0,017.4,0000.0,0004.05,0009.03,0003.33
2024-04-26 01:14:00,SystemResetWarning,0815.3,5.01,000.00,025.2,024.4,000.0,033.6,027.1,017.4,0000.0,0004.00,0008.98,0003.31
2024-04-26 01:15:00,SystemResetWarning,0815.2,4.98,000.00,025.2,024.4,000.0,033.7,027.0,019.5,0000.0,0003.98,0008.96,0003.29
2024-04-26 01:16:00,SystemResetWarning,0815.1,5.00,000.00,025.2,024.4,000.0,033.7,027.0,019.5,0000.0,0003.99,0009.03,0003.29
2024-04-26 01:17:00,SystemResetWarning,0815.0,5.01,000.00,025.2,024.4,000.0,033.6,027.0,019.5,0000.0,0003.96,0008.82,0003.29
2024-04-26 01:18:00,SystemResetWarning,0814.9,5.00,000.00,025.2,024.4,000.0,033.7,027.0,018.7,0000.0,0003.93,0008.33,0003.28
2024-04-26 01:19:00,SystemResetWarning,0814.9,4.99,000.00,025.2,024.4,000.0,033.7,027.0,018.9,0000.0,0003.82,0007.63,0003.24
2024-04-26 01:20:00,SystemResetWarning,0814.9,4.99,000.00,025.2,024.4,000.0,033.7,027.0,018.6,0000.0,0003.77,0006.57,0003.22
2024-04-26 01:21:00,SystemResetWarning,0814.9,5.00,000.00,025.2,024.4,000.0,033.7,027.0,018.7,0000.0,0003.75,0006.88,0003.19
2024-04-26 01:22:00,SystemResetWarning,0814.8,5.02,000.00,025.2,024.4,000.0,033.7,027.0,018.6,0000.0,0003.73,0007.20,0003.17
2024-04-26 01:23:00,SystemResetWarning,0814.8,5.01,000.00,025.2,024.4,000.0,033.7,027.0,017.3,0000.0,0003.73,0007.66,0003.14
2024-04-26 01:24:00,SystemResetWarning,0814.8,4.99,000.00,025.2,024.4,000.0,033.6,027.0,017.2,0000.0,0003.70,0008.23,0003.08
2024-04-26 01:25:00,SystemResetWarning,0814.9,4.99,000.00,025.2,024.4,000.0,033.6,027.0,017.5,0000.0,0003.65,0008.21,0003.08
2024-04-26 01:26:00,SystemResetWarning,0814.9,4.99,000.00,025.2,024.4,000.0,033.6,026.9,017.6,0000.0,0003.68,0008.57,0003.09
2024-04-26 01:27:00,SystemResetWarning,0814.9,4.99,000.00,025.2,024.4,000.0,033.6,026.9,017.6,0000.0,0003.71,0009.07,0003.10
2024-04-26 01:28:00,SystemResetWarning,0815.1,5.01,000.00,025.2,024.3,000.0,033.6,026.9,017.8,0000.0,0003.76,0009.51,0003.12
2024-04-26 01:29:00,SystemResetWarning,0815.2,5.01,000.00,025.2,024.3,000.0,033.6,027.0,018.0,0000.0,0003.84,0010.90,0003.17
2024-04-26 01:30:00,SystemResetWarning,0815.3,5.00,000.00,025.2,024.3,000.0,033.6,027.0,018.2,0000.0,0003.92,0012.07,0003.23
2024-04-26 01:31:00,SystemResetWarning,0815.5,4.99,000.00,025.2,024.4,000.0,033.6,027.0,018.1,0000.0,0004.02,0012.56,0003.30
2024-04-26 01:32:00,SystemResetWarning,0815.6,5.00,000.00,025.2,024.4,000.0,033.7,027.0,018.2,0000.0,0004.12,0012.62,0003.38
2024-04-26 01:33:00,SystemResetWarning,0815.7,5.00,000.00,025.2,024.4,000.0,033.7,027.0,018.0,0000.0,0004.19,0012.56,0003.44
2024-04-26 01:34:00,SystemResetWarning,0815.8,5.00,000.00,025.2,024.4,000.0,033.7,027.0,018.0,0000.0,0004.30,0012.61,0003.52
2024-04-26 01:35:00,SystemResetWarning,0815.9,4.99,000.00,025.2,024.4,000.0,033.7,027.0,018.0,0000.0,0004.42,0012.53,0003.61
2024-04-26 01:36:00,SystemResetWarning,0816.1,5.00,000.00,025.2,024.4,000.0,033.7,027.0,018.0,0000.0,0004.57,0013.09,0003.70
2024-04-26 01:37:00,SystemResetWarning,0816.1,5.02,000.00,025.2,024.4,000.0,033.7,027.0,018.0,0000.0,0004.66,0012.94,0003.77
2024-04-26 01:38:00,SystemResetWarning,0816.2,5.01,000.00,025.2,024.4,000.0,033.7,027.0,018.1,0000.0,0004.67,0012.59,0003.81
2024-04-26 01:39:00,SystemResetWarning,0816.3,4.99,000.00,025.2,024.5,000.0,033.7,027.1,018.1,0000.0,0004.69,0012.70,0003.84
2024-04-26 01:40:00,SystemResetWarning,0816.3,4.99,000.00,025.2,024.5,000.0,033.7,027.0,018.2,0000.0,0004.65,0011.38,0003.84
2024-04-26 01:41:00,SystemResetWarning,0816.4,5.00,000.00,025.3,024.5,000.0,033.7,027.1,018.1,0000.0,0004.65,0010.47,0003.83
2024-04-26 01:42:00,SystemResetWarning,0816.5,5.01,000.00,025.3,024.5,000.0,033.7,027.1,018.2,0000.0,0004.62,0010.22,0003.81
2024-04-26 01:43:00,SystemResetWarning,0816.5,5.01,000.00,025.3,024.5,000.0,033.7,027.1,018.1,0000.0,0004.56,0010.21,0003.80
2024-04-26 01:44:00,SystemResetWarning,0816.5,5.00,000.00,025.3,024.5,000.0,033.7,027.1,018.1,0000.0,0004.51,0010.07,0003.77
2024-04-26 01:45:00,SystemResetWarning,0816.6,4.99,000.00,025.3,024.5,000.0,033.7,027.1,018.0,0000.0,0004.44,0009.64,0003.74
2024-04-26 01:46:00,SystemResetWarning,0816.7,5.00,000.00,025.3,024.5,000.0,033.7,027.1,018.1,0000.0,0004.43,0009.40,0003.72
2024-04-26 01:47:00,SystemResetWarning,0816.7,5.00,000.00,025.3,024.6,000.0,033.7,027.1,018.1,0000.0,0004.43,0009.15,0003.69
2024-04-26 01:48:00,SystemResetWarning,0816.7,5.00,000.00,025.3,024.6,000.0,033.7,027.2,018.1,0000.0,0004.39,0009.10,0003.66
2024-04-26 01:49:00,SystemResetWarning,0816.8,5.00,000.00,025.3,024.6,000.0,033.7,027.2,018.0,0000.0,0004.36,0009.09,0003.63
2024-04-26 01:50:00,SystemResetWarning,0816.8,5.01,000.00,025.3,024.6,000.0,033.7,027.2,018.0,0000.0,0004.31,0009.23,0003.58
2024-04-26 01:51:00,SystemResetWarning,0816.9,5.01,000.00,025.3,024.6,000.0,033.7,027.2,018.2,0000.0,0004.31,0009.59,0003.56
2024-04-26 01:52:00,SystemResetWarning,0816.9,4.99,000.00,025.3,024.6,000.0,033.8,027.2,018.1,0000.0,0004.29,0009.78,0003.52
2024-04-26 01:53:00,SystemResetWarning,0816.9,4.99,000.00,025.4,024.6,000.0,033.8,027.2,018.0,0000.0,0004.28,0009.71,0003.49
2024-04-26 01:54:00,SystemResetWarning,0816.9,5.01,000.00,025.4,024.6,000.0,033.8,027.2,018.0,0000.0,0004.25,0009.93,0003.45
2024-04-26 01:55:00,SystemResetWarning,0816.9,5.01,000.00,025.4,024.6,000.0,033.8,027.2,017.9,0000.0,0004.24,0010.39,0003.40
2024-04-26 01:56:00,SystemResetWarning,0816.9,4.99,000.00,025.4,024.6,000.0,033.8,027.2,017.8,0000.0,0004.15,0010.25,0003.36
2024-04-26 01:57:00,SystemResetWarning,0817.0,5.00,000.00,025.4,024.6,000.0,033.8,027.2,017.5,0000.0,0004.08,0010.16,0003.32
2024-04-26 01:58:00,SystemResetWarning,0817.1,5.02,000.00,025.4,024.6,000.0,033.8,027.2,017.7,0000.0,0003.98,0009.75,0003.28
2024-04-26 01:59:00,SystemResetWarning,0817.1,5.00,000.00,025.4,024.6,000.0,033.8,027.2,017.9,0000.0,0003.95,0010.11,0003.25
